Regional Weather Roundup
Issued by NWS Green Bay, WI

Home | Current Version | Previous Version | Text Only | Print | Product List | Glossary On
Versions: 1 2 3 4 5 6 7 8 9 10 11 12 13 14 15 16 17 18 19 20 21 22 23 24 25 26 27 28 29 30 31 32 33 34 35 36 37 38 39 40 41 42 43 44 45 46 47 48 49 50
000
ASUS43 KGRB 190811
RWRGRB

NORTH-CENTRAL AND NORTHEAST WISCONSIN REGIONAL WEATHER ROUNDUP
NATIONAL WEATHER SERVICE GREEN BAY WI
300 AM CDT SUN AUG 19 2018

WIZ005-009-010>012-018-019-190900-
NORTH CENTRAL WISCONSIN

CITY           SKY/WX    TMP DP  RH WIND       PRES   REMARKS
IRONWOOD       FAIR      54  54 100 CALM      29.98S FOG
MANITOWISH WTR FOG       53  53 100 CALM      30.00F VSB 1/4
ARBOR VITAE    FAIR      58  56  91 CALM      30.00F
EAGLE RIVER    FOG       52  52 100 CALM      30.03S VSB<1/4
LAND O LAKES   FOG       51  51 100 CALM      30.04S VSB<1/4
RHINELANDER    FOG       56  55  97 CALM      30.03S VSB 1/4
PHILLIPS       FOG       55  55 100 CALM      30.00F VSB 1/2
ANTIGO         FOG       52  52 100 CALM      30.04R VSB 1/4
TOMAHAWK       CLOUDY    50  49  97 CALM      30.02F FOG
MERRILL        LGT RAIN  53  53 100 CALM      30.02F VSB<1/4
$$

WIZ013-073-190900-
NORTHEAST WISCONSIN

CITY           SKY/WX    TMP DP  RH WIND       PRES   REMARKS
IRON MOUNTAIN  FAIR      56  54  93 CALM      30.01R FOG
MARINETTE      FAIR      58  57  97 NW5       30.01R
OCONTO         FAIR      53  53  98 CALM      30.00R
$$

WIZ017-030-035>037-045-190900-
CENTRAL WISCONSIN

CITY           SKY/WX    TMP DP  RH WIND       PRES   REMARKS
MEDFORD        FAIR      51  51 100 CALM      30.00F FOG
WAUSAU         FAIR      58  57  97 E5        30.00F FOG
MOSINEE        FAIR      55  55 100 CALM      30.03S
MARSHFIELD     FAIR      58  58 100 E5        29.99F FOG
WISC RAPIDS    FAIR      58  56  93 CALM      30.01F FOG
STEVENS POINT  FAIR      53  53 100 CALM      30.02F
WAUPACA        FAIR      58  57  98 CALM      30.01S
SHAWANO        FAIR      59  57  94 CALM      30.00S FOG
CLINTONVILLE   FAIR      58  57  95 CALM      30.01S FOG
WAUTOMA        FAIR      55  54  96 CALM      30.01S
$$

WIZ038-039-048-051-190900-
FOX VALLEY

CITY           SKY/WX    TMP DP  RH WIND       PRES   REMARKS
NWS GREEN BAY  FAIR      55  53  93 CALM      30.00S FOG
APPLETON       FAIR      59  52  77 CALM      29.99S
OSHKOSH        FAIR      58  57  97 CALM      29.99F FOG
FOND DU LAC    FAIR      57  55  93 CALM      30.00S FOG
$$

WIZ022-050-052-190900-
EAST CENTRAL WISCONSIN

CITY           SKY/WX    TMP DP  RH WIND       PRES   REMARKS
EPHRAIM        FAIR      60  58  92 CALM      29.99S
WASHINGTON ISL FAIR      53  53  99 CALM      29.99F FOG
STURGEON BAY   FAIR      59  58  96 CALM      30.00F
MANITOWOC      FAIR      57  56  96 CALM      30.00S
SHEBOYGAN      FOG       55  53  93 CALM      29.99F VSB 1
$$

LMZ563-521-522-541>543-190900-
LAKESHORE

STATION/POSITION TIME  TEMP    WIND        PRES    VSBY  WAVE
                       AIR SEA DIR/SP/G                  HT/PER
                 (UTC) (F)     (DEG/KT/KT) (MB)    (MI)  (FT/S)
SHEBOYGAN LKSHOR 0800   65     290/  6/  7 1015.1F
KEWAUNEE LKSHORE 0742   59     310/  3/  5 1014.6F
NORTHPORT PIER   0740   69     360/  2/  2 1015.6S
N MID LAKE BUOY  0750   71 73   70/  8/ 10 1014.8F         1/ 3
S GREEN BAY BUOY 0800   72 76  330/  4/  6 1015.6
SISTER BAY LKSHO 0707   62        CALM       N/A
CHAMBERS ISLAND  0740   60      CALM  /  1 1015.2F
MENOMINEE LKSHOR 0742   66     310/  2/  3 1015.3F
$$



USA.gov is the U.S. government's official web portal to all federal, state and local government web resources and services.